Temp
-9 -9 -9 -9 -10 -10 -11 -11 -11 -11 -11 -11 -11 -11 -11 -11 -11 -11 -11 -11 -10 -10 -10 -9 -9 -9 -8 -8 -8 -8 -8 -8 -8 -9 -9 -8 -9 -9 -8 -8 -8 -8 -8
-9 -9 -9 -9 -9 -9 -10 -10 -10 -10 -10 -10 -10 -10 -10 -11 -11 -11 -11 -11 -11 -11 -11 -11 -10 -10 -10 -10 -9 -8 -8 -8 -8 -8 -8 -8 -8 -8 -8 -8 -8 -8 -8
-9 -9 -9 -9 -9 -9 -9 -9 -9 -9 -9 -9 -9 -10 -10 -10 -10 -10 -10 -10 -10 -10 -10 -10 -10 -10 -10 -10 -10 -10 -10 -9 -9 -9 -8 -8 -8 -8 -8 -8 -8 -8 -8
-9 -9 -9 -9 -9 -9 -9 -9 -9 -9 -9 -9 -9 -9 -9 -9 -9 -10 -10 -10 -10 -10 -10 -10 -10 -10 -10 -10 -10 -10 -10 -10 -10 -10 -9 -9 -9 -8 -8 -8 -8 -8 -8
-9 -9 -9 -9 -9 -9 -9 -9 -9 -9 -9 -9 -9 -9 -9 -9 -9 -10 -10 -10 -10 -10 -10 -10 -10 -10 -10 -10 -10 -10 -10 -10 -10 -10 -9 -10 -10 -9 -9 -8 -8 -9 -9
-9 -9 -9 -10 -10 -9 -9 -9 -9 -9 -9 -9 -9 -9 -9 -9 -9 -9 -9 -9 -10 -10 -10 -10 -10 -10 -10 -10 -10 -10 -10 -10 -10 -10 -10 -10 -10 -10 -10 -9 -9 -9 -9
-9 -9 -9 -9 -9 -9 -9 -9 -9 -9 -9 -9 -9 -9 -8 -8 -9 -9 -9 -9 -9 -10 -10 -10 -10 -10 -10 -10 -10 -9 -10 -9 -10 -10 -10 -10 -10 -10 -10 -10 -10 -10 -9
-9 -9 -9 -9 -9 -9 -9 -9 -9 -9 -9 -9 -9 -9 -9 -9 -9 -9 -9 -9 -9 -9 -9 -9 -9 -10 -9 -10 -9 -9 -10 -10 -10 -10 -10 -10 -10 -10 -10 -10 -10 -10 -10
-9 -9 -9 -9 -9 -9 -9 -9 -9 -9 -9 -9 -9 -9 -9 -9 -9 -9 -9 -9 -9 -9 -9 -9 -9 -9 -9 -9 -9 -9 -10 -9 -9 -10 -10 -10 -10 -10 -10 -10 -10 -10 -11
-9 -9 -9 -9 -9 -9 -9 -9 -9 -10 -9 -9 -9 -9 -9 -9 -9 -9 -9 -9 -9 -9 -9 -9 -10 -10 -10 -10 -10 -10 -10 -9 -9 -9 -10 -10 -10 -10 -10 -10 -10 -11 -11
-9 -9 -9 -9 -9 -9 -9 -9 -9 -9 -9 -9 -9 -9 -9 -9 -9 -9 -9 -9 -9 -9 -9 -9 -9 -9 -9 -9 -9 -10 -10 -10 -10 -10 -10 -10 -10 -10 -10 -10 -11 -11 -11
-10 -9 -9 -9 -9 -9 -9 -9 -9 -9 -9 -9 -9 -9 -9 -9 -9 -9 -9 -9 -9 -9 -10 -10 -10 -10 -9 -9 -10 -10 -10 -10 -10 -10 -11 -11 -10 -10 -10 -10 -10 -11 -11
-9 -10 -9 -9 -9 -9 -9 -9 -9 -9 -9 -9 -9 -9 -9 -9 -9 -9 -9 -9 -9 -9 -10 -10 -10 -10 -10 -10 -10 -10 -10 -11 -11 -11 -11 -11 -11 -11 -11 -11 -11 -11 -11
-10 -10 -10 -9 -9 -9 -9 -9 -9 -9 -9 -9 -9 -9 -9 -9 -9 -9 -9 -9 -9 -10 -10 -10 -10 -10 -10 -10 -10 -10 -11 -11 -11 -11 -11 -12 -12 -12 -12 -12 -12 -12 -12
-10 -9 -9 -9 -9 -9 -9 -9 -9 -9 -9 -9 -9 -9 -9 -9 -9 -9 -9 -10 -10 -10 -10 -10 -10 -10 -10 -10 -10 -10 -10 -11 -11 -11 -11 -12 -12 -12 -13 -13 -13 -13 -13
-9 -9 -9 -9 -9 -9 -9 -9 -9 -9 -9 -9 -9 -9 -9 -9 -9 -9 -10 -10 -10 -10 -10 -10 -10 -10 -10 -10 -10 -11 -10 -11 -11 -11 -11 -11 -12 -12 -13 -13 -13 -13 -13
-9 -10 -10 -9 -9 -10 -9 -9 -9 -10 -10 -10 -10 -9 -10 -10 -10 -10 -10 -10 -10 -10 -10 -10 -10 -10 -10 -10 -10 -11 -11 -11 -11 -11 -11 -12 -12 -13 -13 -13 -14 -14 -14
-10 -10 -10 -10 -10 -10 -9 -10 -10 -10 -10 -10 -10 -10 -10 -10 -10 -10 -10 -10 -10 -10 -10 -10 -11 -10 -11 -10 -11 -11 -11 -11 -11 -12 -12 -12 -12 -13 -13 -14 -14 -15 -15
-10 -10 -10 -10 -10 -10 -10 -10 -10 -10 -10 -10 -10 -10 -10 -10 -10 -10 -10 -10 -10 -10 -10 -11 -11 -11 -11 -11 -11 -11 -11 -11 -12 -12 -12 -12 -12 -13 -13 -14 -14 -15 -15
-10 -10 -10 -10 -10 -10 -10 -10 -10 -10 -10 -10 -10 -10 -9 -10 -9 -9 -10 -10 -10 -10 -10 -11 -11 -11 -11 -11 -11 -11 -11 -11 -12 -11 -12 -12 -13 -13 -13 -13 -14 -15 -16
-10 -10 -10 -10 -10 -10 -10 -10 -10 -10 -10 -10 -10 -10 -10 -10 -10 -10 -10 -10 -11 -11 -11 -11 -11 -11 -11 -11 -11 -11 -12 -12 -12 -12 -12 -13 -13 -13 -13 -14 -15 -16 -16
-9 -9 -9 -10 -10 -10 -11 -10 -11 -11 -10 -10 -10 -10 -10 -10 -10 -10 -10 -11 -11 -11 -11 -11 -11 -11 -11 -11 -11 -11 -11 -12 -12 -12 -13 -13 -13 -13 -14 -14 -15 -16 -17
-9 -10 -10 -10 -10 -11 -11 -11 -11 -11 -11 -11 -10 -10 -10 -10 -10 -11 -11 -11 -11 -11 -12 -12 -12 -12 -12 -12 -12 -12 -12 -12 -12 -13 -13 -14 -14 -14 -14 -14 -16 -16 -17
-10 -10 -10 -10 -10 -11 -10 -10 -11 -11 -11 -11 -11 -11 -11 -11 -11 -11 -11 -11 -11 -11 -12 -12 -12 -12 -12 -12 -13 -13 -13 -13 -13 -13 -14 -14 -14 -14 -14 -14 -16 -17 -17
-10 -10 -11 -10 -10 -11 -10 -10 -11 -11 -11 -10 -11 -11 -11 -11 -11 -11 -11 -12 -12 -12 -12 -12 -12 -12 -12 -13 -13 -13 -13 -13 -14 -14 -14 -14 -14 -14 -14 -15 -17 -18 -18
-11 -11 -11 -10 -11 -11 -10 -10 -11 -11 -11 -11 -10 -11 -11 -11 -11 -11 -12 -12 -12 -12 -12 -13 -13 -13 -13 -13 -13 -14 -14 -14 -14 -15 -15 -15 -15 -15 -15 -16 -17 -19 -19
Height
5860 5860 5859 5859 5859 5858 5858 5858 5859 5859 5859 5859 5859 5861 5861 5861 5862 5862 5862 5862 5863 5864 5865 5865 5866 5867 5867 5868 5869 5870 5871 5873 5875 5876 5878 5879 5881 5883 5883 5885 5887 5888 5889
5861 5861 5861 5860 5860 5859 5859 5859 5859 5860 5860 5860 5860 5860 5861 5861 5861 5861 5862 5863 5862 5863 5864 5865 5864 5865 5866 5867 5868 5868 5869 5870 5871 5872 5874 5875 5877 5879 5880 5882 5883 5884 5886
5861 5860 5860 5860 5860 5859 5859 5859 5860 5860 5860 5860 5861 5861 5861 5861 5862 5862 5862 5862 5863 5863 5863 5863 5864 5864 5864 5865 5865 5865 5867 5869 5869 5868 5869 5872 5873 5875 5876 5878 5879 5881 5882
5859 5859 5859 5858 5858 5858 5859 5860 5859 5859 5859 5860 5860 5861 5861 5861 5862 5862 5862 5861 5861 5862 5863 5862 5863 5864 5865 5865 5865 5865 5865 5865 5866 5868 5869 5869 5869 5871 5873 5874 5874 5876 5878
5858 5857 5857 5857 5858 5858 5857 5858 5858 5858 5858 5859 5858 5859 5858 5859 5860 5860 5860 5860 5860 5861 5862 5861 5861 5862 5862 5863 5864 5864 5865 5865 5864 5865 5866 5867 5867 5869 5868 5869 5872 5872 5873
5856 5855 5855 5855 5856 5856 5855 5855 5856 5856 5857 5857 5856 5857 5857 5857 5858 5858 5858 5858 5859 5859 5860 5860 5860 5860 5860 5860 5861 5861 5862 5864 5863 5864 5863 5863 5864 5864 5865 5866 5866 5868 5869
5853 5853 5853 5853 5853 5852 5852 5853 5853 5853 5854 5854 5854 5854 5854 5855 5855 5855 5855 5855 5856 5856 5856 5856 5857 5857 5857 5857 5858 5859 5859 5859 5860 5861 5861 5862 5862 5861 5861 5862 5863 5864 5864
5848 5849 5849 5849 5849 5849 5849 5849 5850 5851 5851 5850 5850 5850 5851 5851 5851 5851 5851 5851 5851 5852 5852 5852 5852 5852 5853 5854 5854 5855 5855 5856 5856 5856 5857 5858 5858 5858 5858 5858 5858 5859 5860
5843 5844 5844 5844 5844 5845 5846 5846 5847 5847 5847 5848 5848 5848 5848 5848 5848 5848 5848 5847 5848 5848 5848 5848 5848 5848 5849 5849 5850 5850 5851 5851 5851 5852 5852 5852 5853 5854 5854 5853 5853 5853 5854
5839 5839 5839 5840 5840 5841 5842 5842 5843 5843 5843 5843 5843 5844 5844 5844 5844 5844 5843 5844 5844 5844 5845 5844 5844 5844 5844 5844 5845 5845 5846 5846 5846 5846 5846 5846 5847 5848 5848 5848 5848 5848 5848
5835 5835 5835 5835 5836 5836 5837 5838 5838 5838 5838 5838 5838 5838 5838 5838 5838 5838 5838 5838 5839 5839 5839 5839 5839 5839 5839 5839 5839 5839 5840 5840 5841 5842 5842 5842 5842 5841 5840 5841 5841 5841 5842
5832 5832 5831 5830 5830 5830 5831 5831 5832 5832 5832 5833 5832 5832 5832 5832 5832 5831 5832 5832 5832 5831 5831 5832 5832 5833 5833 5833 5833 5834 5834 5834 5834 5835 5834 5834 5834 5834 5833 5833 5833 5833 5834
5828 5827 5827 5826 5825 5825 5825 5825 5825 5825 5825 5825 5825 5825 5824 5824 5825 5824 5824 5823 5823 5824 5824 5824 5824 5824 5825 5825 5826 5825 5825 5825 5826 5826 5826 5825 5825 5825 5825 5825 5824 5823 5823
5824 5823 5821 5820 5819 5818 5817 5818 5818 5818 5817 5817 5817 5816 5816 5816 5815 5815 5814 5814 5814 5815 5815 5815 5816 5816 5816 5817 5817 5817 5817 5816 5816 5815 5815 5815 5815 5814 5814 5815 5815 5813 5812
5818 5817 5814 5814 5812 5811 5810 5810 5810 5809 5809 5808 5808 5808 5807 5806 5806 5805 5806 5806 5806 5805 5804 5805 5805 5805 5805 5806 5806 5806 5806 5806 5806 5806 5805 5804 5803 5802 5802 5802 5802 5801 5801
5812 5810 5808 5805 5805 5804 5803 5802 5801 5800 5800 5800 5799 5798 5798 5797 5797 5796 5796 5796 5795 5795 5795 5795 5795 5795 5795 5796 5796 5796 5796 5796 5796 5795 5796 5795 5793 5792 5790 5788 5787 5786 5786
5804 5803 5800 5799 5797 5796 5796 5795 5793 5792 5791 5790 5789 5788 5787 5786 5786 5787 5786 5786 5785 5785 5783 5783 5784 5785 5785 5785 5786 5786 5785 5784 5784 5784 5784 5785 5784 5781 5778 5775 5772 5771 5769
5795 5793 5791 5789 5788 5787 5787 5786 5785 5783 5783 5781 5779 5778 5777 5777 5776 5776 5776 5774 5773 5772 5772 5772 5773 5773 5773 5773 5774 5772 5770 5770 5770 5770 5770 5769 5767 5764 5762 5759 5757 5754 5752
5784 5783 5782 5781 5780 5779 5778 5776 5775 5774 5774 5772 5770 5769 5768 5767 5765 5764 5764 5763 5762 5761 5761 5762 5761 5761 5761 5760 5761 5759 5757 5757 5756 5755 5752 5752 5752 5748 5745 5743 5739 5737 5734
5775 5774 5773 5771 5770 5769 5768 5767 5766 5765 5763 5762 5760 5759 5757 5756 5754 5753 5752 5751 5749 5749 5749 5749 5748 5748 5748 5748 5747 5745 5743 5741 5742 5741 5739 5736 5733 5731 5729 5725 5723 5721 5719
5766 5765 5764 5762 5760 5759 5758 5757 5755 5754 5753 5751 5749 5747 5746 5743 5742 5742 5740 5739 5738 5737 5737 5737 5736 5734 5732 5733 5733 5731 5729 5727 5727 5723 5724 5720 5718 5715 5711 5707 5703 5703 5704
5755 5755 5753 5752 5751 5750 5749 5747 5745 5743 5742 5739 5738 5736 5734 5732 5731 5730 5728 5726 5726 5725 5725 5724 5724 5722 5720 5717 5718 5716 5716 5714 5712 5709 5707 5704 5701 5699 5696 5692 5686 5684 5685
5747 5746 5745 5743 5742 5741 5740 5737 5734 5732 5729 5728 5725 5724 5722 5720 5718 5717 5715 5714 5713 5712 5712 5711 5709 5708 5707 5702 5700 5698 5698 5698 5697 5697 5692 5686 5683 5682 5679 5674 5669 5666 5665
5738 5737 5736 5734 5732 5730 5728 5725 5722 5720 5718 5716 5714 5712 5710 5708 5706 5704 5703 5702 5700 5699 5698 5696 5694 5691 5691 5687 5683 5679 5678 5675 5674 5682 5680 5672 5666 5663 5658 5654 5651 5648 5646
5728 5727 5724 5721 5720 5719 5718 5716 5712 5709 5707 5704 5701 5699 5697 5695 5693 5691 5690 5689 5687 5685 5683 5681 5677 5675 5673 5671 5667 5663 5658 5653 5649 5648 5662 5660 5647 5643 5639 5632 5627 5625 5622
5719 5716 5713 5711 5709 5708 5707 5705 5702 5698 5694 5692 5688 5686 5684 5682 5681 5678 5676 5675 5673 5671 5668 5666 5662 5658 5656 5653 5650 5645 5641 5635 5629 5624 5623 5631 5623 5628 5618 5613 5606 5603 5601
Wind_Speed
6 6 7 6 7 6 8 6 6 7 7 8 9 9 7 5 3 0 3 4 5 7 8 8 10 11 15 17 18 17 16 15 13 11 12 16 15 17 17 20 24 22 20
1 2 1 2 4 5 6 6 6 8 10 12 12 13 14 11 8 6 4 4 3 3 4 4 5 7 9 10 13 18 20 20 18 16 15 14 15 15 18 21 22 24 23
5 4 1 1 2 3 2 4 5 6 7 9 11 11 12 14 13 10 8 8 8 8 7 7 6 8 9 10 11 11 13 16 20 22 21 20 20 18 17 20 23 24 26
8 7 7 4 4 4 6 6 7 6 6 7 9 9 11 11 12 13 12 11 11 12 13 13 13 12 11 12 13 13 14 14 15 17 21 22 24 23 22 21 22 26 28
13 12 11 10 11 9 7 9 9 10 9 8 10 10 11 12 13 13 14 14 14 14 14 14 15 15 15 16 16 16 17 16 17 19 20 20 21 24 26 26 24 25 26
14 15 15 15 15 13 11 11 12 12 11 10 11 12 14 15 15 16 15 15 13 13 13 13 15 16 17 18 19 20 20 19 21 22 22 22 23 23 23 29 29 30 31
16 16 16 18 18 16 14 13 14 16 15 13 13 14 16 19 19 20 20 20 20 19 18 18 19 19 18 18 20 22 23 24 24 24 25 26 27 27 26 27 28 33 34
18 18 18 19 20 21 19 18 17 17 18 20 20 19 19 20 22 23 24 23 24 22 22 22 21 21 21 22 24 25 25 24 26 28 29 28 30 31 32 31 30 30 32
19 19 20 20 21 23 22 22 22 22 21 21 21 24 24 23 23 24 24 24 22 21 20 19 19 20 19 19 20 22 24 24 27 30 32 32 33 34 36 37 36 36 34
18 20 21 22 23 22 23 23 25 25 26 26 27 26 26 27 27 28 27 25 26 25 22 23 23 22 23 23 24 21 20 21 25 29 30 33 38 38 38 40 41 42 40
19 20 21 23 23 24 25 26 26 27 28 28 29 29 30 30 31 32 32 32 30 31 30 29 27 25 26 26 27 27 28 31 32 33 34 34 36 37 41 43 45 44 45
21 21 22 24 25 25 27 29 29 29 29 30 31 33 32 32 33 33 35 37 38 38 38 37 37 33 32 32 32 28 26 29 29 32 36 38 40 41 39 38 43 47 47
21 22 23 26 26 26 28 30 31 32 32 33 35 36 36 36 35 36 36 36 37 38 37 38 38 37 37 35 32 29 19 22 28 29 32 37 42 43 46 45 42 45 47
25 26 25 25 26 29 31 32 33 34 35 35 35 36 37 38 38 39 39 38 38 38 36 36 35 37 34 31 29 28 27 31 35 39 36 38 42 44 47 50 53 49 49
30 29 31 30 29 29 29 31 34 36 37 38 39 39 39 40 39 39 39 38 38 38 39 39 39 37 36 33 30 32 37 35 38 40 41 44 45 47 47 51 56 60 59
33 33 33 34 33 32 33 33 34 36 38 39 41 41 42 43 41 42 40 40 39 39 41 42 40 37 35 32 35 34 39 42 39 38 45 51 52 50 51 56 58 61 64
36 34 35 36 36 34 34 34 34 35 36 38 40 42 43 42 42 43 41 42 43 44 43 43 38 35 35 37 35 35 38 40 44 44 47 49 56 59 62 60 59 65 67
39 36 38 37 37 37 37 37 35 35 34 35 37 40 41 42 41 41 41 43 44 45 45 43 39 37 36 39 38 34 37 42 46 50 52 52 57 61 60 61 65 63 62
39 38 37 38 38 38 38 39 38 37 37 37 38 39 39 39 41 41 42 42 42 43 43 43 42 41 41 43 42 43 42 44 48 50 55 60 62 67 64 64 62 60 54
40 40 41 41 41 41 41 42 42 41 41 41 41 40 40 40 41 42 43 43 43 43 43 46 46 47 47 51 52 50 49 50 52 54 60 59 64 69 69 67 65 61 55
41 40 39 40 42 44 46 47 48 47 48 47 47 45 43 42 41 42 43 45 46 45 46 48 49 50 53 51 50 56 59 58 61 59 58 60 60 65 72 72 72 61 59
41 39 40 41 44 47 48 50 50 50 50 51 49 46 44 43 43 45 46 47 47 47 48 50 51 50 53 56 54 54 55 58 58 57 60 58 63 68 74 75 78 67 63
39 41 41 46 48 47 49 51 51 51 51 50 51 48 45 45 43 45 47 48 48 49 50 52 53 52 52 57 58 61 62 63 60 60 64 65 68 72 75 80 81 75 72
42 44 45 49 50 51 51 50 51 50 52 51 49 48 48 47 46 47 47 48 49 50 52 54 56 57 58 60 62 65 67 68 70 66 65 69 71 76 79 82 82 78 73
42 46 50 54 55 53 51 50 51 52 53 51 50 51 49 49 48 49 50 51 52 54 55 57 58 59 61 64 66 67 71 72 75 80 68 70 74 79 79 82 81 77 73
42 47 50 50 52 51 52 51 51 51 52 54 55 55 52 52 53 52 53 55 56 57 59 61 61 61 63 67 69 70 69 70 75 78 79 75 78 76 81 83 84 73 69
Wind_Direction
55 48 35 32 12 19 23 23 17 11 4 357 347 341 341 333 339 340 229 220 215 222 222 217 220 223 227 231 236 232 232 233 242 244 246 250 253 254 251 253 258 256 252
78 78 22 22 5 359 3 1 1 355 351 351 349 342 335 330 324 320 296 255 253 263 244 232 218 224 232 235 236 240 236 234 233 238 241 240 244 253 251 251 254 261 260
233 232 233 347 282 270 300 320 328 335 339 339 334 334 314 318 314 311 299 300 297 286 275 265 254 238 232 232 237 241 249 255 246 238 235 235 241 244 250 249 249 251 258
269 249 250 259 270 265 264 270 277 295 318 347 335 316 305 304 297 290 291 290 292 294 295 300 300 294 280 264 251 249 248 248 254 256 255 251 241 238 245 251 249 247 248
276 268 254 254 254 259 270 284 285 285 290 299 299 300 299 296 294 294 293 292 289 289 287 289 291 293 296 295 286 273 264 258 255 255 257 260 263 253 243 243 249 247 245
275 270 265 254 249 252 259 269 276 280 279 277 284 286 287 286 283 281 278 277 279 283 287 283 284 284 285 286 289 289 288 279 271 266 262 259 260 260 261 254 245 245 251
282 278 273 266 261 259 258 264 270 271 270 266 268 268 271 272 274 275 275 274 273 271 269 269 271 274 276 282 286 287 287 287 287 284 277 274 269 265 264 261 258 255 249
281 282 279 276 271 263 259 260 262 266 269 267 264 263 261 264 265 270 275 277 274 272 273 273 277 277 278 281 283 286 285 286 286 285 282 278 274 275 272 267 265 263 262
279 278 274 275 274 273 264 260 263 268 270 273 275 273 272 273 271 270 271 273 262 259 262 270 275 279 282 287 290 286 287 292 291 286 283 279 277 276 275 275 270 267 264
284 283 280 278 279 276 270 267 270 270 272 274 276 279 279 275 275 274 271 267 258 259 263 270 274 272 274 281 282 283 289 298 305 303 298 292 287 283 276 275 272 272 270
287 284 283 281 277 273 268 264 271 275 272 275 277 279 280 276 273 271 268 267 263 259 262 273 276 280 277 277 279 282 287 294 297 298 296 292 293 287 281 279 276 271 270
297 290 283 278 274 272 271 272 272 274 271 270 271 274 278 274 274 273 273 267 265 268 270 271 273 274 279 277 282 280 286 290 291 294 298 298 292 287 283 279 278 275 271
301 295 290 284 278 274 270 268 270 271 272 272 270 273 273 272 269 270 272 269 264 266 269 268 268 270 276 274 272 278 279 295 303 308 299 296 294 292 282 280 275 272 269
299 298 296 293 289 282 276 272 270 270 270 271 272 272 273 272 270 269 271 268 266 267 267 265 264 269 273 273 272 263 284 293 290 295 303 301 295 291 284 281 272 268 269
299 299 294 296 290 285 280 276 272 271 272 271 271 272 272 272 270 268 270 270 267 264 266 265 267 269 270 271 262 269 275 286 293 290 298 301 299 292 290 282 280 275 269
301 296 293 289 289 290 288 285 282 279 276 274 272 271 271 272 269 268 269 265 263 264 264 264 263 266 268 259 263 274 282 285 293 301 305 302 297 295 293 284 278 275 273
301 298 288 290 288 285 286 287 287 283 280 278 275 273 272 271 269 268 268 265 262 262 261 258 257 264 268 259 270 284 286 290 298 296 297 300 301 301 296 287 282 276 274
299 291 288 288 287 287 288 288 286 286 286 284 281 277 275 272 270 267 267 264 261 259 256 254 259 267 260 259 270 279 290 292 295 295 297 299 301 304 298 293 292 288 280
294 293 291 286 287 287 287 288 289 291 291 288 284 282 279 276 273 270 267 263 260 258 255 259 263 268 262 259 269 274 281 288 292 294 295 293 301 302 306 304 299 299 295
291 290 286 284 285 286 288 289 290 292 292 291 290 292 288 281 277 274 269 267 265 262 261 265 269 272 270 268 273 274 276 281 286 292 292 296 300 302 301 307 305 304 299
289 288 286 285 285 286 288 289 288 290 290 291 291 290 287 282 278 273 271 269 268 266 267 268 271 275 275 273 272 274 278 284 283 288 297 297 297 306 302 300 301 299 299
285 283 282 283 284 285 288 290 290 287 287 288 289 288 287 284 281 278 276 273 270 269 269 270 274 276 277 277 275 279 278 281 288 290 293 296 297 301 304 300 298 298 297
282 280 283 285 286 287 289 290 289 288 287 287 287 287 285 284 281 278 275 273 270 269 271 275 279 279 278 281 283 278 277 279 279 283 289 294 297 300 300 297 295 295 295
277 278 281 281 282 284 286 288 289 289 289 289 288 286 286 284 281 278 275 272 270 273 276 279 281 281 283 283 279 279 280 281 284 285 289 292 295 297 297 296 295 296 294
275 277 280 281 283 284 285 288 288 288 288 290 290 287 288 286 283 279 276 272 272 274 279 282 282 283 282 282 280 280 280 281 286 290 291 291 293 297 296 297 298 296 294
275 275 279 283 285 287 288 287 285 287 289 288 288 287 287 286 285 282 278 276 276 279 282 283 282 283 283 282 281 282 283 286 290 290 292 294 294 296 297 295 297 295 294